Regional Weather Roundup
Issued by NWS Wilmington, NC

Home | Current Version | Previous Version | Text Only | Print | Product List | Glossary On
Versions: 1 2 3 4 5 6 7 8 9 10 11 12 13 14 15 16 17 18 19 20 21 22 23 24 25 26 27
000
ASUS42 KILM 191213
RWRILM
RWRILM
REGIONAL HOURLY WEATHER ROUNDUP
NATIONAL WEATHER SERVICE WILMINGTON NC
800 AM EDT THU OCT 19 2017

NOTE: "FAIR" INDICATES FEW OR NO CLOUDS BELOW 12,000 FEET WITH NO
SIGNIFICANT WEATHER AND/OR OBSTRUCTIONS TO VISIBILITY.

...............WFO WILMINGTON COUNTY WARNING AREA...............

......COASTAL NC AND SC COUNTIES......

CITY           SKY/WX    TMP DP  RH WIND       PRES   REMARKS
WILMINGTON     PTCLDY    58  56  93 N6        30.25R
N MYRTLE BEACH CLEAR     57  54  89 N8        30.24R
MYRTLE BEACH   CLEAR     58  54  86 N8        30.25S

......INLAND NC AND SC COUNTIES.......

CITY           SKY/WX    TMP DP  RH WIND       PRES   REMARKS
LUMBERTON      CLEAR     50  50 100 MISG      30.28R
ELIZABETHTOWN  NOT AVBL
WHITEVILLE     CLEAR     54  52  93 CALM      30.26S
FLORENCE       CLEAR     50  48  93 N5        30.28R
DARLINGTON     CLEAR     47  45  93 N6        30.29S
KINGSTREE      FAIR      50  48  93 CALM      30.26S
HARTSVILLE     FAIR      48  45  87 N3        30.29R
BENNETTSVILLE  FAIR      45  45 100 NW3       30.29R
CONWAY         FAIR      55  54  94 N5        30.25S
GEORGETOWN     FAIR      55  55 100 N7        30.24S
MARION         FAIR     N/A N/A N/A N3        30.27S

....................REST OF NORTH CAROLINA......................

.........EASTERN NC.........

CITY           SKY/WX    TMP DP  RH WIND       PRES   REMARKS
CAPE HATTERAS  CLEAR     67  63  87 NE7       30.25S
JACKSONVILLE   CLEAR     54  53  97 N5        30.27R
MOREHEAD CITY  CLEAR     64  61  90 N9        30.25R
KENANSVILLE    CLEAR     50  50 100 CALM      30.28S
NEW BERN       CLEAR     59  59 100 NE5       30.28R
ELIZABETH CITY PTCLDY    60  58  92 N6        30.29R

.........CENTRAL NC.........

CITY           SKY/WX    TMP DP  RH WIND       PRES   REMARKS
RALEIGH DURHAM PTCLDY    42  42 100 CALM      30.31R
ROCKY MOUNT    CLEAR     48  48 100 CALM      30.30S
ROANOKE RAPIDS NOT AVBL
FAYETTEVILLE   CLEAR     50  49  96 N6        30.28R
HOFFMAN        CLEAR     42  41  97 N3        30.29S

.........WESTERN NC.........

CITY           SKY/WX    TMP DP  RH WIND       PRES   REMARKS
CHARLOTTE      PTCLDY    42  42 100 NW3       30.31S
GREENSBORO     PTCLDY    42  39  89 CALM      30.30S
HICKORY        NOT AVBL
BOONE          NOT AVBL
ASHEVILLE      NOT AVBL

.....................REST OF SOUTH CAROLINA.....................

.........EASTERN SC.........

CITY           SKY/WX    TMP DP  RH WIND       PRES   REMARKS
CHARLESTON     CLEAR     57  53  86 N7        30.23R
BEAUFORT MCAS  CLEAR     58  55  90 NE6       30.23S
HILTON HEAD    CLEAR     64  55  72 NE14        N/A

.........CENTRAL SC.........

CITY           SKY/WX    TMP DP  RH WIND       PRES   REMARKS
COLUMBIA       PTCLDY    43  42  97 CALM      30.28R
ORANGEBURG     CLEAR     47  45  93 CALM      30.27R
SUMTER SHAW    CLEAR     50  43  78 N5        30.26R

.........WESTERN SC.........

CITY           SKY/WX    TMP DP  RH WIND       PRES   REMARKS
GREENVILLE     NOT AVBL
ROCK HILL      CLEAR     41  41 100 CALM      30.31R FOG
ANDERSON       CLEAR     43  41  93 CALM      30.31R
CLEMSON        NOT AVBL
GREENWOOD      CLEAR     40  40 100 CALM      30.32R


...................COASTAL AND OFFSHORE REPORTS..................

................LOCAL PIERS AND NC RESERVE................


STATION/POSITION TIME  SKY/WX   TEMP    WIND        PRES    VSBY
                                AIR SEA DIR/SP/G
                 (UTC)          (F)     (DEG/KT/KT) (MB)    (MI)
JOHNY MRCER PIER NOT AVBL
NC RESRV MASNBRO 1045            58      20/  1     1024.0
OCEAN CREST PIER NOT AVBL
SPRINGMAID  PIER NOT AVBL


................COASTAL AND OFFSHORE BUOYS................


STATION/POSITION TIME  SKY/WX   TEMP    WIND        PRES    VSBY
                                AIR SEA DIR/SP/G
                 (UTC)          (F)     (DEG/KT/KT) (MB)    (MI)
DIMNDSHOAL 41025 1150            74 81   50/ 10/ 14 1023.4R
WVE H/P(F/S)=  5/ 9 SWL H/P/D(F/S/D)=  3/110/ 9

CAPE LOOKOUT     1200            65      10/ 10/ 12 1023.6R
ONSLOW BAY 41036 NOT AVBL
ONSLOW BAY 41064 1108            71      40/ 17/ 21 1022.8R
ONSLOW BAY 41159 NOT AVBL
MASNBO INL 41110 1159               74                N/A
WVE H/P(F/S)=  5/10 SWL H/P/D(F/S/D)=  2/130/11

WILM HARBR 41108 1200               74                N/A
WVE H/P(F/S)=  4/ 9

27SE WRITB 41037 1108            71 76   60/ 17/ 23 1022.7R
FRYING PAN 41013 1200            73 76   30/ 17/ 21 1022.4
SUNST NRSH 41024 1108            62 73   50/ 14/ 16 1023.1S
CAPRS NRSH 41029 1108            63 73   30/ 17/ 23 1022.4R
EDISTO     41004 1150            75 80   40/ 19/ 23 1021.4R
WVE H/P(F/S)=  7/ 9 SWL H/P/D(F/S/D)=  3/110/ 9



..........OFFSHORE BUOYS BEYOND 100 NM OFFSHORE...........
.....IN A TRIANGLE---HAT TO BERMUDA TO BAHAMAS TO HAT.....


STATION/POSITION TIME  SKY/WX   TEMP    WIND        PRES    VSBY
                                AIR SEA DIR/SP/G
                 (UTC)          (F)     (DEG/KT/KT) (MB)    (MI)
150E HAT   41001 NOT AVBL
W BERMUDA  41048 1150            73 79   40/ 29/ 37 1017.2R
WVE H/P(F/S)= 11/ 8 SWL H/P/D(F/S/D)=  2/ 40/15

ATLANTIC S 41049 1150            80 81  180/  8/ 14 1019.8R
WVE H/P(F/S)=  7/10 SWL H/P/D(F/S/D)=  7/320/10

E BAHAMAS  41046 1200            82 82  150/ 14/ 17 1017.7
NE BAHAMAS 41047 1200            77 82  230/ 10/ 14 1016.5
120E CANVRL41010 NOT AVBL

END




USA.gov is the U.S. government's official web portal to all federal, state and local government web resources and services.